Wind_Speed
56 56 57 57 57 57 58 58 59 58 55 54 54 55 57 58 58 58 58 59 58 59 60 60 61 60 59 58 58 57 55 55 54 53 51 51 50 50
56 57 57 57 58 58 57 57 58 57 55 53 54 54 54 55 55 56 56 56 56 56 56 58 58 58 58 57 57 57 55 54 53 53 52 51 50 48
57 57 57 57 57 57 56 56 56 55 55 53 53 52 52 52 52 53 53 52 52 52 52 54 55 56 56 55 55 54 53 52 52 52 51 49 48 47
57 57 57 57 56 55 55 54 53 53 54 52 50 48 48 48 49 49 49 50 50 49 48 49 51 52 52 53 52 51 51 50 50 49 49 48 47 44
56 56 55 55 54 53 52 51 50 50 50 49 46 44 44 44 44 45 46 46 46 46 46 46 46 48 49 49 50 49 49 47 47 47 46 46 45 44
54 54 53 52 50 49 48 47 47 47 46 44 41 39 39 39 41 42 43 43 43 44 45 44 44 45 46 46 45 46 46 45 44 43 43 43 42 42
53 52 50 48 47 46 45 44 44 42 41 39 37 36 35 35 37 38 38 40 41 41 41 41 41 41 42 42 42 42 42 42 41 41 41 41 41 41
50 49 47 46 45 43 42 41 40 39 37 36 35 35 33 32 32 33 34 35 36 36 37 37 37 37 37 37 37 37 37 37 38 37 38 38 39 39
48 46 43 42 41 40 38 37 36 36 35 35 33 32 31 30 29 29 30 31 32 33 33 32 32 32 33 33 34 34 34 35 36 36 36 36 37 37
43 40 38 37 38 37 34 33 33 32 32 32 30 29 28 28 27 26 27 28 29 28 29 29 29 28 28 29 30 31 32 33 34 34 35 35 35 35
37 36 36 36 34 33 32 30 29 28 28 27 27 27 26 26 26 25 24 23 24 24 25 25 26 26 25 26 27 29 30 31 32 32 32 33 33 33
35 34 34 32 31 31 29 28 26 25 24 22 23 23 23 23 23 22 21 21 21 22 22 23 23 24 23 24 25 26 28 29 30 31 30 30 31 32
34 32 31 30 29 28 26 24 23 20 19 18 18 18 18 18 19 19 19 19 20 21 21 21 21 22 22 22 24 25 25 26 26 26 26 27 28 28
32 30 28 27 25 23 21 19 17 15 14 14 14 14 15 15 15 16 17 17 18 17 17 18 18 19 20 21 20 21 22 22 23 23 24 25 25 25
28 26 24 22 20 19 18 15 13 12 11 11 11 12 12 12 13 14 15 16 16 17 17 16 16 17 18 17 17 18 18 19 20 20 21 21 21 21
23 22 19 17 16 15 12 11 10 11 11 11 10 11 11 11 12 14 15 14 14 14 15 15 15 16 15 15 16 15 15 16 17 17 18 18 18 18
19 17 14 13 12 10 8 7 8 9 9 9 9 10 11 11 11 13 13 13 13 13 14 14 14 14 14 13 13 13 13 14 14 14 14 15 15 15
15 13 11 9 8 6 5 5 6 7 7 7 8 8 9 10 10 11 12 12 13 13 13 13 13 12 13 13 13 12 11 10 10 11 11 12 13 14
11 10 9 8 6 5 4 4 5 6 6 7 7 7 8 9 9 9 10 10 10 11 12 12 11 11 11 11 10 10 9 9 9 9 10 11 11 12
10 9 8 7 6 5 4 5 6 6 7 7 8 7 8 8 9 9 9 10 10 10 10 9 10 10 10 9 8 8 9 9 8 8 8 8 9 9
8 7 7 6 5 5 6 6 6 7 7 7 7 8 8 9 10 9 9 10 9 9 8 8 8 8 9 9 8 8 8 8 7 7 6 6 6 6
6 6 4 4 4 5 6 6 6 6 7 7 7 8 8 9 9 9 9 9 9 8 8 7 6 7 8 8 8 8 8 8 7 6 5 5 5 4
5 4 3 4 5 6 6 6 6 6 8 8 8 8 8 9 8 9 9 9 8 7 6 6 6 6 7 8 8 8 9 7 6 6 5 6 5 5
Wind_Direction
294 293 292 291 289 286 285 283 281 279 276 274 273 272 269 266 265 263 261 259 258 257 256 256 256 255 255 256 256 256 256 257 257 259 260 263 265 266
293 293 292 291 289 287 285 284 283 281 278 276 274 272 269 266 264 263 261 260 258 257 256 255 255 254 254 254 254 254 255 256 257 258 260 262 263 264
293 293 292 291 290 288 285 284 283 281 279 279 276 272 270 267 264 263 261 260 258 257 256 255 253 253 253 252 254 254 255 256 257 257 259 260 261 263
293 293 292 291 290 288 286 285 283 281 280 280 276 272 269 266 263 261 261 260 258 255 255 254 252 252 252 251 252 253 254 255 256 256 256 257 260 261
293 293 293 292 291 289 287 284 282 279 280 280 275 271 268 266 263 261 261 259 257 253 252 253 253 252 251 252 252 252 252 254 254 254 255 257 258 260
294 294 293 292 291 288 286 283 281 279 279 278 275 271 269 266 263 261 259 258 255 252 251 251 252 251 250 250 251 251 251 252 253 252 253 255 257 259
294 294 293 292 290 289 286 284 282 280 279 276 273 271 270 267 264 262 259 256 255 253 251 250 250 249 250 249 249 249 249 250 251 251 251 254 256 257
295 294 292 291 290 289 287 285 283 281 278 274 272 271 269 267 264 261 258 255 253 250 248 247 248 247 247 247 248 246 247 248 248 249 250 253 255 257
296 294 292 292 290 289 286 284 281 278 277 273 270 267 267 266 264 263 258 255 250 247 244 244 246 244 242 242 244 244 244 245 246 249 250 253 255 257
296 295 294 293 293 290 287 283 279 278 276 273 268 265 264 262 262 260 255 252 248 246 242 242 241 242 239 239 240 241 243 244 247 249 251 253 255 257
297 297 295 294 293 290 286 283 280 277 275 270 264 263 260 258 256 255 253 250 244 241 238 238 237 237 238 238 238 241 244 247 248 249 251 252 254 257
297 298 297 295 292 289 284 283 281 276 272 266 262 259 258 256 252 252 249 245 239 232 233 234 234 234 233 235 238 243 246 248 248 249 251 253 255 256
298 299 297 294 291 286 283 282 280 274 268 261 257 254 253 249 246 246 242 238 232 229 230 231 231 232 233 236 239 242 246 249 248 249 252 256 257 258
300 299 297 294 289 283 279 279 276 265 260 256 251 247 245 243 242 238 234 230 225 224 227 228 229 232 236 237 239 242 246 248 248 249 252 254 256 256
300 302 299 295 289 280 278 277 270 259 251 247 244 236 239 239 232 227 225 220 218 221 226 223 225 231 234 235 236 241 245 246 247 248 250 251 252 252
299 301 300 295 290 283 279 273 259 246 242 242 241 235 235 233 228 220 216 214 213 214 218 219 223 228 231 229 232 236 240 240 243 246 247 248 249 249
300 300 298 293 289 282 273 262 245 234 230 232 228 223 224 222 215 212 211 211 209 209 214 219 226 228 224 225 230 231 234 237 237 239 240 242 244 248
304 304 300 299 296 284 268 245 224 217 216 214 209 208 205 201 199 202 202 204 205 207 209 214 218 218 214 218 223 227 232 232 232 234 236 240 245 248
302 300 299 296 289 279 252 220 206 201 198 191 184 186 188 188 187 188 188 193 199 201 200 202 204 204 204 210 216 221 221 220 225 231 240 246 250 252
296 296 298 290 275 258 228 205 196 191 188 182 179 178 177 178 174 172 178 183 187 187 187 192 195 196 197 200 207 209 208 212 221 229 237 246 245 248
292 292 289 275 254 226 205 195 191 187 181 178 178 176 173 169 166 167 169 174 176 176 179 182 189 192 190 193 200 206 207 209 213 221 228 232 230 235
288 284 272 234 208 196 189 184 180 175 170 171 173 172 168 164 164 166 166 167 170 174 177 180 188 193 194 196 198 199 199 199 204 210 211 208 204 211
281 266 231 201 191 184 177 173 170 166 165 166 166 163 162 161 161 164 165 169 174 178 182 187 191 192 190 191 191 189 187 185 187 187 184 176 174 169
Height
5591 5586 5581 5576 5572 5568 5564 5561 5559 5558 5561 5561 5558 5556 5554 5554 5555 5556 5560 5563 5566 5569 5572 5576 5580 5584 5588 5592 5595 5598 5601 5604 5606 5607 5609 5610 5612 5612
5576 5572 5566 5561 5557 5553 5549 5545 5541 5539 5541 5544 5542 5539 5537 5538 5539 5540 5543 5546 5549 5552 5555 5559 5564 5568 5572 5576 5580 5583 5586 5588 5591 5594 5595 5597 5599 5599
5562 5557 5552 5546 5541 5537 5533 5530 5527 5523 5522 5526 5525 5523 5522 5523 5524 5525 5527 5530 5534 5537 5541 5544 5548 5553 5557 5561 5564 5568 5571 5574 5577 5580 5582 5584 5586 5588
5547 5542 5537 5531 5527 5522 5518 5515 5512 5509 5507 5507 5509 5508 5508 5508 5509 5511 5513 5516 5519 5524 5527 5530 5534 5538 5542 5546 5550 5554 5557 5561 5564 5567 5570 5573 5574 5576
5533 5527 5522 5517 5512 5508 5504 5501 5498 5496 5493 5492 5493 5493 5494 5495 5496 5499 5501 5503 5506 5509 5513 5517 5520 5525 5529 5533 5537 5541 5545 5548 5552 5555 5557 5560 5563 5565
5519 5513 5508 5503 5498 5494 5491 5488 5486 5484 5481 5480 5480 5481 5482 5482 5484 5486 5489 5491 5494 5497 5501 5505 5508 5512 5516 5520 5525 5529 5532 5536 5539 5543 5546 5549 5552 5554
5505 5500 5495 5490 5486 5482 5479 5477 5474 5472 5471 5470 5470 5470 5471 5472 5473 5475 5477 5480 5483 5486 5490 5494 5497 5501 5505 5509 5513 5517 5521 5525 5528 5532 5535 5539 5542 5544
5492 5487 5483 5478 5474 5471 5468 5466 5464 5462 5461 5460 5460 5461 5462 5462 5463 5465 5467 5470 5474 5477 5479 5484 5487 5491 5495 5499 5503 5507 5511 5515 5519 5523 5526 5529 5532 5534
5479 5475 5471 5467 5463 5460 5458 5456 5455 5453 5452 5451 5451 5453 5453 5454 5454 5456 5458 5461 5464 5467 5471 5475 5478 5482 5486 5490 5495 5498 5502 5506 5510 5514 5517 5520 5523 5525
5469 5464 5460 5457 5454 5450 5449 5448 5446 5445 5443 5442 5443 5445 5445 5445 5446 5448 5450 5453 5456 5459 5462 5467 5470 5474 5479 5483 5487 5491 5495 5499 5503 5506 5509 5512 5514 5516
5460 5456 5452 5449 5446 5442 5440 5439 5438 5437 5436 5435 5435 5436 5437 5438 5439 5441 5443 5446 5449 5452 5456 5460 5464 5468 5473 5477 5481 5485 5488 5492 5495 5498 5501 5504 5506 5508
5452 5448 5444 5440 5437 5434 5432 5431 5430 5430 5429 5428 5429 5430 5431 5432 5433 5434 5437 5440 5443 5448 5452 5455 5460 5464 5468 5472 5475 5478 5482 5485 5488 5491 5494 5496 5498 5500
5444 5440 5437 5433 5429 5427 5425 5424 5423 5423 5423 5423 5424 5425 5426 5427 5428 5430 5433 5436 5440 5444 5448 5452 5456 5459 5463 5467 5470 5473 5476 5479 5481 5484 5486 5489 5491 5493
5436 5433 5429 5425 5422 5420 5419 5418 5418 5418 5418 5419 5420 5421 5423 5424 5426 5428 5430 5433 5437 5441 5445 5448 5452 5456 5459 5462 5465 5468 5470 5473 5475 5478 5480 5482 5484 5486
5429 5426 5422 5419 5416 5415 5415 5414 5413 5414 5415 5416 5417 5419 5420 5422 5423 5426 5428 5431 5434 5438 5442 5445 5449 5452 5455 5458 5461 5464 5466 5468 5470 5472 5475 5477 5479 5480
5423 5420 5417 5415 5413 5412 5411 5410 5410 5411 5412 5413 5414 5416 5418 5419 5421 5424 5427 5430 5433 5436 5440 5443 5446 5449 5452 5455 5457 5460 5462 5464 5466 5468 5470 5472 5474 5476
5419 5416 5414 5412 5411 5409 5409 5408 5409 5409 5410 5411 5412 5414 5416 5417 5419 5422 5425 5428 5431 5435 5438 5441 5444 5447 5449 5452 5454 5456 5459 5461 5462 5464 5466 5468 5470 5472
5416 5414 5412 5410 5409 5409 5408 5408 5408 5409 5410 5411 5412 5413 5415 5417 5419 5421 5424 5427 5430 5433 5436 5439 5442 5445 5448 5450 5452 5454 5456 5458 5459 5461 5463 5465 5467 5468
5414 5412 5411 5409 5409 5408 5408 5408 5408 5409 5409 5411 5412 5414 5415 5417 5419 5422 5424 5427 5430 5433 5435 5438 5440 5443 5446 5448 5450 5452 5454 5455 5457 5459 5460 5462 5464 5465
5412 5411 5409 5408 5408 5408 5408 5408 5408 5409 5410 5411 5413 5414 5416 5418 5420 5422 5425 5427 5430 5432 5435 5437 5439 5442 5444 5447 5449 5451 5452 5454 5455 5457 5458 5459 5461 5462
5410 5409 5408 5407 5406 5407 5407 5408 5409 5410 5411 5412 5413 5415 5417 5419 5421 5423 5426 5428 5430 5432 5434 5436 5438 5440 5443 5445 5447 5449 5451 5452 5454 5455 5456 5458 5459 5460
5408 5408 5407 5406 5406 5407 5407 5408 5409 5410 5411 5413 5415 5416 5418 5420 5422 5424 5426 5429 5431 5433 5434 5436 5437 5439 5441 5444 5446 5448 5449 5451 5452 5454 5455 5456 5458 5459
5407 5407 5406 5406 5406 5407 5408 5409 5410 5411 5413 5414 5416 5417 5419 5421 5423 5425 5427 5429 5431 5433 5434 5436 5437 5439 5440 5443 5445 5446 5448 5450 5451 5453 5454 5455 5457 5459